Погода в Белой Глине

Россия / Краснодарский край     46°04′25″N   40°52′16″E
темп.,
°C
ветер,
м/с
пор.,
м/с
влажн.,
%
обл.,
%
осадки,
мм/ч
давл.,
гПа
погр.,
м
27 февраля, сб
сб2700:00+3зюз7179287 0.0 1021519
03:00+3зюз7189283 0.0 1020572
06:00+3зюз8189189 0.0 1019699
09:00+4зюз9188995 0.0 1018617
12:00+5зюз81787100 0.0 1017716
15:00+6зюз71685100 0.0 1015796
18:00+6зюз71687100 0.3 1015696
21:00+5зюз71393100 2.6 1016532
28 февраля, вс
вс2800:00+4сз3698100 2.9 1015259
03:00+3с2498100 4.4 1016152
06:00+2ссз2399100 2.0 1016169
09:00+2ссз2498100 4.4 1017267
12:00+4ссз247996 0.3 1017669
15:00+4сз357795 0.4 1018756
18:00+3сз258197 0.2 1019253
21:00+1зсз238971 0.2 102069
1 марта, пн
пн100:00+1зсз239276 0.0 102171
03:000сз129768 0.0 102254
06:000з129396 0.0 1023134
09:00+1зюз239295 0.1 1024246
12:00+3зюз337991 0.1 1025582
15:00+5з346594 0.3 1025975
18:00+3з2374100 0.2 102662
21:00+1ссв229596 0.3 102834
2 марта, вт
вт200:000ююз119531 0.0 102822
03:000зюз249357 0.1 102890
06:00−1зюз379421 0.0 1028210
09:00+1з587929 0.0 1028553
12:00+4з7106599 0.1 10261281
15:00+4з9126598 0.1 10241265
18:00+3з9147499 0.0 10221072
21:00+2зюз10177899 0.0 10211011
3 марта, ср
ср300:00+2зюз121992100 0.6 1019923
03:00+3з111797100 4.0 1018863
06:00+2зсз61197100 4.9 1017637
09:00+2сз7109599 5.4 1019637
12:00+5зсз796890 0.3 10201310
15:00+5сз796594 0.3 10201444
18:00+3зсз487293 0.1 1022496
21:00+1зсз387976 0.2 1024226